This is the latest recevied weather packets stored in our database for station/object SP3VBV-2. If no packets are shown the sender has not sent any weather packets the latest 10 day(s).
| Time | Temp. | Humidity | Pressure | Rain* | Wind** | Luminosity | Snow |
|---|---|---|---|---|---|---|---|
| 1777918924 | 20° C | 52% | 1010.1 hPa | - | - | - | - |
| 1777918324 | 20.56° C | 50% | 1010 hPa | - | - | - | - |
| 1777917725 | 21.11° C | 49% | 1009.9 hPa | - | - | - | - |
| 1777917125 | 21.67° C | 48% | 1009.9 hPa | - | - | - | - |
| 1777916524 | 21.67° C | 46% | 1010 hPa | - | - | - | - |
| 1777915927 | 22.22° C | 44% | 1009.9 hPa | - | - | - | - |
| 1777915325 | 22.78° C | 43% | 1009.8 hPa | - | - | - | - |
| 1777914724 | 23.89° C | 42% | 1009.7 hPa | - | - | - | - |
| 1777914125 | 23.89° C | 44% | 1009.6 hPa | - | - | - | - |
| 1777913526 | 23.89° C | 41% | 1009.7 hPa | - | - | - | - |
| 1777912958 | 23.89° C | 42% | 1009.6 hPa | - | - | - | - |
| 1777912920 | 23.89° C | 41% | 1009.8 hPa | - | - | - | - |
| 1777912316 | 24.44° C | 40% | 1009.8 hPa | - | - | - | - |
| 1777911125 | 24.44° C | 38% | 1009.6 hPa | - | - | - | - |
| 1777909924 | 25° C | 38% | 1009.8 hPa | - | - | - | - |
| 1777909324 | 25.56° C | 37% | 1009.8 hPa | - | - | - | - |
| 1777908724 | 25.56° C | 37% | 1009.9 hPa | - | - | - | - |
| 1777908124 | 25.56° C | 37% | 1009.9 hPa | - | - | - | - |
| 1777907524 | 25.56° C | 35% | 1010 hPa | - | - | - | - |
| 1777906924 | 25.56° C | 37% | 1010.1 hPa | - | - | - | - |
| 1777906324 | 25.56° C | 34% | 1010.1 hPa | - | - | - | - |
| 1777905724 | 25.56° C | 36% | 1010.3 hPa | - | - | - | - |
| 1777905124 | 25.56° C | 35% | 1010.3 hPa | - | - | - | - |
| 1777904524 | 25° C | 37% | 1010.3 hPa | - | - | - | - |
| 1777903924 | 24.44° C | 36% | 1010.6 hPa | - | - | - | - |
* Rain since midnight (hover to see other rain measurements)
** Current wind speed in m/s (hover to see current wind gust speed)